,,,PA_Meas_PMT16A,,PR_Meas_QMR101_102,,RH_Meas_QMH101,,SR_Meas_QMS101,,TA_Meas_QMH101,,GenWind,,GenWind,
date,time,status,PA,status,PR,status,RH,status,SR,status,TA,status,DirAvg,status,SpdAvg,
2009-01-25, 00:00:05,VALID,1010.18,VALID,0,VALID,90.7083,VALID,0,VALID,23.8694,VALID,140,VALID,0.182422,
2009-01-25, 00:01:05,VALID,1010.21,VALID,0,VALID,90.716,VALID,0,VALID,23.8694,VALID,140,VALID,0.248437,
2009-01-25, 00:02:05,VALID,1010.18,VALID,0,VALID,90.716,VALID,0,VALID,23.8694,VALID,140,VALID,0.391016,
2009-01-25, 00:03:05,VALID,1010.18,VALID,0,VALID,90.7083,VALID,0,VALID,23.8694,VALID,116,VALID,0.512109,
2009-01-25, 00:04:05,VALID,1010.15,VALID,0,VALID,90.7083,VALID,0,VALID,23.8694,VALID,118,VALID,0.382422,
2009-01-25, 00:05:05,VALID,1010.18,VALID,0,VALID,90.7007,VALID,0,VALID,23.8499,VALID,121,VALID,0.889063,
2009-01-25, 00:06:05,VALID,1010.19,VALID,0,VALID,90.6931,VALID,0,VALID,23.8499,VALID,120,VALID,0.7125,
2009-01-25, 00:07:05,VALID,1010.2,VALID,0,VALID,90.6702,VALID,0,VALID,23.8499,VALID,133,VALID,0.885156,
2009-01-25, 00:08:05,VALID,1010.18,VALID,0,VALID,90.6626,VALID,0,VALID,23.8499,VALID,120,VALID,0.689844,
2009-01-25, 00:09:05,VALID,1010.24,VALID,0,VALID,90.6626,VALID,0,VALID,23.8499,VALID,105,VALID,0.769922,
2009-01-25, 00:10:05,VALID,1010.24,VALID,0,VALID,90.655,VALID,0,VALID,23.8499,VALID,112,VALID,0.850781,
2009-01-25, 00:11:05,VALID,1010.19,VALID,0,VALID,90.6245,VALID,0,VALID,23.8499,VALID,106,VALID,0.586328,
2009-01-25, 00:12:05,VALID,1010.19,VALID,0,VALID,90.6321,VALID,0,VALID,23.8499,VALID,106,VALID,0.155859,
2009-01-25, 00:13:05,VALID,1010.18,VALID,0,VALID,90.6168,VALID,0,VALID,23.8304,VALID,133,VALID,1.10156,
2009-01-25, 00:14:05,VALID,1010.15,VALID,0,VALID,90.6016,VALID,0,VALID,23.8304,VALID,146,VALID,0.665625,
2009-01-25, 00:15:05,VALID,1010.15,VALID,0,VALID,90.5863,VALID,0,VALID,23.8304,VALID,130,VALID,0.541016,
2009-01-25, 00:16:05,VALID,1010.15,VALID,0,VALID,90.5634,VALID,0,VALID,23.8109,VALID,132,VALID,0.580469,
2009-01-25, 00:17:05,VALID,1010.13,VALID,0,VALID,90.5711,VALID,0,VALID,23.8109,VALID,143,VALID,0.709375,
2009-01-25, 00:18:05,VALID,1010.1,VALID,0,VALID,90.5558,VALID,0,VALID,23.8127,VALID,128,VALID,0.757031,
2009-01-25, 00:19:05,VALID,1010.08,VALID,0,VALID,90.5482,VALID,0,VALID,23.7914,VALID,129,VALID,0.984375,
2009-01-25, 00:20:05,VALID,1010.06,VALID,0,VALID,90.5482,VALID,0,VALID,23.772,VALID,146,VALID,0.824609,
2009-01-25, 00:21:05,VALID,1010.06,VALID,0,VALID,90.5482,VALID,0,VALID,23.7525,VALID,130,VALID,0.709766,
2009-01-25, 00:22:05,VALID,1010.01,VALID,0,VALID,90.5482,VALID,0,VALID,23.772,VALID,126,VALID,0.719531,
2009-01-25, 00:23:05,VALID,1010.04,VALID,0,VALID,90.5406,VALID,0,VALID,23.772,VALID,132,VALID,0.701172,
2009-01-25, 00:24:05,VALID,1010.02,VALID,0,VALID,90.5711,VALID,0,VALID,23.7525,VALID,136,VALID,0.749219,
2009-01-25, 00:25:05,VALID,1010,VALID,0,VALID,90.5558,VALID,0,VALID,23.7525,VALID,125,VALID,0.986719,
2009-01-25, 00:26:05,VALID,1010.02,VALID,0,VALID,90.5711,VALID,0,VALID,23.733,VALID,135,VALID,0.524609,
2009-01-25, 00:27:05,VALID,1010.01,VALID,0,VALID,90.5787,VALID,0,VALID,23.7738,VALID,138,VALID,0.566016,
2009-01-25, 00:28:05,VALID,1009.97,VALID,0,VALID,90.5939,VALID,0,VALID,23.7525,VALID,121,VALID,0.40625,
2009-01-25, 00:29:05,VALID,1009.98,VALID,0,VALID,90.5711,VALID,0,VALID,23.733,VALID,121,VALID,0.704297,
2009-01-25, 00:30:05,VALID,1009.94,VALID,0,VALID,90.6168,VALID,0,VALID,23.733,VALID,115,VALID,0.626172,
2009-01-25, 00:31:05,VALID,1009.91,VALID,0,VALID,90.6092,VALID,0,VALID,23.7525,VALID,114,VALID,0.180469,
2009-01-25, 00:32:05,VALID,1009.9,VALID,0,VALID,90.6168,VALID,0,VALID,23.7312,VALID,114,VALID,0,
2009-01-25, 00:33:05,VALID,1009.89,VALID,0,VALID,90.6321,VALID,0,VALID,23.7312,VALID,114,VALID,0,
2009-01-25, 00:34:05,VALID,1009.85,VALID,0,VALID,90.6321,VALID,0,VALID,23.733,VALID,114,VALID,0,
2009-01-25, 00:35:05,VALID,1009.84,VALID,0,VALID,90.655,VALID,0,VALID,23.7525,VALID,114,VALID,0,
2009-01-25, 00:36:05,VALID,1009.79,VALID,0,VALID,90.6702,VALID,0,VALID,23.7525,VALID,114,VALID,0,
2009-01-25, 00:37:05,VALID,1009.74,VALID,0,VALID,90.655,VALID,0,VALID,23.7525,VALID,159,VALID,0.409766,
2009-01-25, 00:38:05,VALID,1009.76,VALID,0,VALID,90.6778,VALID,0,VALID,23.7525,VALID,179,VALID,0.370703,
2009-01-25, 00:39:05,VALID,1009.72,VALID,0,VALID,90.6626,VALID,0,VALID,23.7525,VALID,176,VALID,0.405469,
2009-01-25, 00:40:05,VALID,1009.75,VALID,0,VALID,90.655,VALID,0,VALID,23.7525,VALID,174,VALID,0.224609,
2009-01-25, 00:41:05,VALID,1009.73,VALID,0,VALID,90.6855,VALID,0,VALID,23.7525,VALID,173,VALID,0.254297,
2009-01-25, 00:42:05,VALID,1009.71,VALID,0,VALID,90.6778,VALID,0,VALID,23.7525,VALID,153,VALID,0.244141,
2009-01-25, 00:43:05,VALID,1009.69,VALID,0,VALID,90.6626,VALID,0,VALID,23.7525,VALID,125,VALID,0.407031,
2009-01-25, 00:44:05,VALID,1009.67,VALID,0,VALID,90.6626,VALID,0,VALID,23.733,VALID,154,VALID,0.408984,
2009-01-25, 00:45:05,VALID,1009.66,VALID,0,VALID,90.6626,VALID,0,VALID,23.733,VALID,154,VALID,0.0796875,
2009-01-25, 00:46:05,VALID,1009.62,VALID,0,VALID,90.6702,VALID,0,VALID,23.733,VALID,154,VALID,0,
2009-01-25, 00:47:05,VALID,1009.58,VALID,0,VALID,90.655,VALID,0,VALID,23.7117,VALID,154,VALID,0,
2009-01-25, 00:48:05,VALID,1009.58,VALID,0,VALID,90.6778,VALID,0,VALID,23.733,VALID,154,VALID,0,
2009-01-25, 00:49:05,VALID,1009.56,VALID,0,VALID,90.6702,VALID,0,VALID,23.7543,VALID,154,VALID,0,
2009-01-25, 00:50:05,VALID,1009.53,VALID,0,VALID,90.6778,VALID,0,VALID,23.733,VALID,154,VALID,0,
2009-01-25, 00:51:05,VALID,1009.53,VALID,0,VALID,90.6702,VALID,0,VALID,23.733,VALID,154,VALID,0,
2009-01-25, 00:52:05,VALID,1009.52,VALID,0,VALID,90.6702,VALID,0,VALID,23.733,VALID,154,VALID,0,
2009-01-25, 00:53:05,VALID,1009.53,VALID,0,VALID,90.6702,VALID,0,VALID,23.733,VALID,154,VALID,0,
2009-01-25, 00:54:05,VALID,1009.49,VALID,0,VALID,90.6778,VALID,0,VALID,23.733,VALID,154,VALID,0,
2009-01-25, 00:55:05,VALID,1009.47,VALID,0,VALID,90.6855,VALID,0,VALID,23.733,VALID,154,VALID,0,
2009-01-25, 00:56:05,VALID,1009.46,VALID,0,VALID,90.6855,VALID,0,VALID,23.7525,VALID,154,VALID,0,
2009-01-25, 00:57:05,VALID,1009.46,VALID,0,VALID,90.6855,VALID,0,VALID,23.772,VALID,154,VALID,0,
2009-01-25, 00:58:05,VALID,1009.46,VALID,0,VALID,90.6778,VALID,0,VALID,23.7525,VALID,155,VALID,0,
2009-01-25, 00:59:05,VALID,1009.48,VALID,0,VALID,90.6855,VALID,0,VALID,23.733,VALID,155,VALID,0,
2009-01-25, 01:00:05,VALID,1009.48,VALID,0,VALID,90.6855,VALID,0,VALID,23.733,VALID,155,VALID,0,
2009-01-25, 01:01:05,VALID,1009.49,VALID,0,VALID,90.6778,VALID,0,VALID,23.733,VALID,155,VALID,0,
2009-01-25, 01:02:05,VALID,1009.49,VALID,0,VALID,90.6626,VALID,0,VALID,23.733,VALID,155,VALID,0,
2009-01-25, 01:03:05,VALID,1009.48,VALID,0,VALID,90.6626,VALID,0,VALID,23.733,VALID,155,VALID,0,
2009-01-25, 01:04:05,VALID,1009.45,VALID,0,VALID,90.6778,VALID,0,VALID,23.733,VALID,155,VALID,0.423438,
2009-01-25, 01:05:05,VALID,1009.49,VALID,0,VALID,90.6855,VALID,0,VALID,23.733,VALID,155,VALID,0.280859,
2009-01-25, 01:06:05,VALID,1009.46,VALID,0,VALID,90.6778,VALID,0,VALID,23.6922,VALID,155,VALID,0.306641,
2009-01-25, 01:07:05,VALID,1009.44,VALID,0,VALID,90.6778,VALID,0,VALID,23.7135,VALID,155,VALID,0.0328125,
2009-01-25, 01:08:05,VALID,1009.46,VALID,0,VALID,90.7007,VALID,0,VALID,23.733,VALID,155,VALID,0,
2009-01-25, 01:09:05,VALID,1009.44,VALID,0,VALID,90.6855,VALID,0,VALID,23.7135,VALID,155,VALID,0.1625,
2009-01-25, 01:10:05,VALID,1009.46,VALID,0,VALID,90.6931,VALID,0,VALID,23.733,VALID,155,VALID,0,
2009-01-25, 01:11:05,VALID,1009.45,VALID,0,VALID,90.7007,VALID,0,VALID,23.7135,VALID,155,VALID,0,
2009-01-25, 01:12:05,VALID,1009.44,VALID,0,VALID,90.6778,VALID,0,VALID,23.7135,VALID,155,VALID,0,
2009-01-25, 01:13:05,VALID,1009.44,VALID,0,VALID,90.7007,VALID,0,VALID,23.7135,VALID,155,VALID,0,
2009-01-25, 01:14:05,VALID,1009.43,VALID,0,VALID,90.7083,VALID,0,VALID,23.7135,VALID,155,VALID,0,
2009-01-25, 01:15:05,VALID,1009.44,VALID,0,VALID,90.7007,VALID,0,VALID,23.733,VALID,155,VALID,0,
2009-01-25, 01:16:05,VALID,1009.45,VALID,0,VALID,90.6855,VALID,0,VALID,23.6922,VALID,155,VALID,0,
2009-01-25, 01:17:05,VALID,1009.41,VALID,0,VALID,90.7007,VALID,0,VALID,23.7135,VALID,155,VALID,0,
2009-01-25, 01:18:04,VALID,1009.41,VALID,0,VALID,90.7083,VALID,0,VALID,23.694,VALID,155,VALID,0,
2009-01-25, 01:19:04,VALID,1009.37,VALID,0,VALID,90.7083,VALID,0,VALID,23.7135,VALID,155,VALID,0,
2009-01-25, 01:20:04,VALID,1009.37,VALID,0,VALID,90.7236,VALID,0,VALID,23.694,VALID,155,VALID,0,
2009-01-25, 01:21:04,VALID,1009.32,VALID,0,VALID,90.716,VALID,0,VALID,23.7153,VALID,155,VALID,0,
2009-01-25, 01:22:04,VALID,1009.3,VALID,0,VALID,90.7236,VALID,0,VALID,23.694,VALID,155,VALID,0,
2009-01-25, 01:23:04,VALID,1009.3,VALID,0,VALID,90.7312,VALID,0,VALID,23.694,VALID,155,VALID,0,
2009-01-25, 01:24:04,VALID,1009.28,VALID,0,VALID,90.7312,VALID,0,VALID,23.694,VALID,155,VALID,0,
2009-01-25, 01:25:04,VALID,1009.28,VALID,0,VALID,90.7388,VALID,0,VALID,23.7135,VALID,154,VALID,0,
2009-01-25, 01:26:04,VALID,1009.27,VALID,0,VALID,90.7388,VALID,0,VALID,23.7135,VALID,154,VALID,0,
2009-01-25, 01:27:04,VALID,1009.24,VALID,0,VALID,90.7465,VALID,0,VALID,23.7135,VALID,154,VALID,0,
2009-01-25, 01:28:04,VALID,1009.24,VALID,0,VALID,90.7388,VALID,0,VALID,23.694,VALID,152,VALID,0,
2009-01-25, 01:29:04,VALID,1009.22,VALID,0,VALID,90.7541,VALID,0,VALID,23.7135,VALID,89,VALID,0,
2009-01-25, 01:30:04,VALID,1009.21,VALID,0,VALID,90.7541,VALID,0,VALID,23.7135,VALID,89,VALID,0,
2009-01-25, 01:31:04,VALID,1009.24,VALID,0,VALID,90.7693,VALID,0,VALID,23.6922,VALID,89,VALID,0,
2009-01-25, 01:32:04,VALID,1009.2,VALID,0,VALID,90.7465,VALID,0,VALID,23.7135,VALID,89,VALID,0,
2009-01-25, 01:33:04,VALID,1009.18,VALID,0,VALID,90.7541,VALID,0,VALID,23.7135,VALID,89,VALID,0,
2009-01-25, 01:34:04,VALID,1009.2,VALID,0,VALID,90.7693,VALID,0,VALID,23.7135,VALID,94,VALID,0,
2009-01-25, 01:35:04,VALID,1009.19,VALID,0,VALID,90.7617,VALID,0,VALID,23.7135,VALID,94,VALID,0,
2009-01-25, 01:36:04,VALID,1009.21,VALID,0,VALID,90.7541,VALID,0,VALID,23.7348,VALID,84,VALID,0,
2009-01-25, 01:37:04,VALID,1009.22,VALID,0,VALID,90.7541,VALID,0,VALID,23.7135,VALID,84,VALID,0,
2009-01-25, 01:38:04,VALID,1009.23,VALID,0,VALID,90.7541,VALID,0,VALID,23.694,VALID,84,VALID,0,
2009-01-25, 01:39:04,VALID,1009.21,VALID,0,VALID,90.7617,VALID,0,VALID,23.6727,VALID,84,VALID,0,
2009-01-25, 01:40:04,VALID,1009.22,VALID,0,VALID,90.7541,VALID,0,VALID,23.694,VALID,84,VALID,0,
2009-01-25, 01:41:04,VALID,1009.23,VALID,0,VALID,90.7541,VALID,0,VALID,23.6532,VALID,84,VALID,0,
2009-01-25, 01:42:04,VALID,1009.22,VALID,0,VALID,90.7388,VALID,0,VALID,23.6745,VALID,84,VALID,0,
2009-01-25, 01:43:04,VALID,1009.2,VALID,0,VALID,90.7541,VALID,0,VALID,23.6745,VALID,83,VALID,0,
2009-01-25, 01:44:04,VALID,1009.21,VALID,0,VALID,90.7465,VALID,0,VALID,23.6958,VALID,64,VALID,0,
2009-01-25, 01:45:04,VALID,1009.21,VALID,0,VALID,90.7617,VALID,0,VALID,23.6745,VALID,64,VALID,0,
2009-01-25, 01:46:04,VALID,1009.19,VALID,0,VALID,90.7541,VALID,0,VALID,23.6745,VALID,63,VALID,0,
2009-01-25, 01:47:04,VALID,1009.18,VALID,0,VALID,90.7465,VALID,0,VALID,23.655,VALID,68,VALID,0.551562,
2009-01-25, 01:48:04,VALID,1009.16,VALID,0,VALID,90.7388,VALID,0,VALID,23.655,VALID,69,VALID,0.491016,
2009-01-25, 01:49:04,VALID,1009.13,VALID,0,VALID,90.7465,VALID,0,VALID,23.6338,VALID,69,VALID,0.524219,
2009-01-25, 01:50:04,VALID,1009.11,VALID,0,VALID,90.7617,VALID,0,VALID,23.655,VALID,69,VALID,0.310547,
2009-01-25, 01:51:04,VALID,1009.12,VALID,0,VALID,90.7541,VALID,0,VALID,23.655,VALID,51,VALID,0.376953,
2009-01-25, 01:52:04,VALID,1009.08,VALID,0,VALID,90.7541,VALID,0,VALID,23.655,VALID,39,VALID,0.360938,
2009-01-25, 01:53:04,VALID,1009.1,VALID,0,VALID,90.7617,VALID,0,VALID,23.6356,VALID,38,VALID,0.260938,
2009-01-25, 01:54:04,VALID,1009.05,VALID,0,VALID,90.777,VALID,0,VALID,23.6161,VALID,41,VALID,0.553906,
2009-01-25, 01:55:04,VALID,1009.09,VALID,0,VALID,90.7465,VALID,0,VALID,23.5948,VALID,25,VALID,0.671484,
2009-01-25, 01:56:04,VALID,1009.08,VALID,0,VALID,90.7541,VALID,0,VALID,23.5966,VALID,25,VALID,0.340625,
2009-01-25, 01:57:04,VALID,1009.07,VALID,0,VALID,90.7465,VALID,0,VALID,23.5966,VALID,25,VALID,0.352344,
2009-01-25, 01:58:04,VALID,1009.09,VALID,0,VALID,90.7693,VALID,0,VALID,23.5771,VALID,25,VALID,0.358594,
2009-01-25, 01:59:04,VALID,1009.08,VALID,0,VALID,90.777,VALID,0,VALID,23.5558,VALID,25,VALID,0,
2009-01-25, 02:00:04,VALID,1009.08,VALID,0,VALID,90.7617,VALID,0,VALID,23.5771,VALID,25,VALID,0,
2009-01-25, 02:01:04,VALID,1009.1,VALID,0,VALID,90.7846,VALID,0,VALID,23.5576,VALID,41,VALID,0.411719,
2009-01-25, 02:02:04,VALID,1009.08,VALID,0,VALID,90.7998,VALID,0,VALID,23.5576,VALID,48,VALID,0.170312,
2009-01-25, 02:03:04,VALID,1009.06,VALID,0,VALID,90.7846,VALID,0,VALID,23.5381,VALID,48,VALID,0.00585938,
2009-01-25, 02:04:04,VALID,1009.07,VALID,0,VALID,90.7846,VALID,0,VALID,23.5169,VALID,68,VALID,0.680078,
2009-01-25, 02:05:04,VALID,1009.07,VALID,0,VALID,90.7922,VALID,0,VALID,23.5186,VALID,71,VALID,0.833594,
2009-01-25, 02:06:04,VALID,1009.09,VALID,0,VALID,90.7998,VALID,0,VALID,23.5186,VALID,59,VALID,0.834766,
2009-01-25, 02:07:04,VALID,1009.07,VALID,0,VALID,90.7922,VALID,0,VALID,23.5186,VALID,56,VALID,0.529297,
2009-01-25, 02:08:04,VALID,1009.07,VALID,0,VALID,90.8075,VALID,0,VALID,23.5186,VALID,57,VALID,0.126953,
2009-01-25, 02:09:04,VALID,1009.05,VALID,0,VALID,90.8304,VALID,0,VALID,23.5186,VALID,66,VALID,0.3625,
2009-01-25, 02:10:04,VALID,1009.04,VALID,0,VALID,90.8304,VALID,0,VALID,23.5186,VALID,66,VALID,0,
2009-01-25, 02:11:04,VALID,1009.08,VALID,0,VALID,90.8304,VALID,0.105969,VALID,23.5169,VALID,66,VALID,0,
2009-01-25, 02:12:04,VALID,1009.05,VALID,0,VALID,90.8456,VALID,0,VALID,23.4974,VALID,6,VALID,0.4625,
2009-01-25, 02:13:04,VALID,1009.05,VALID,0,VALID,90.8456,VALID,0.105969,VALID,23.4974,VALID,7,VALID,0.0714844,
2009-01-25, 02:14:04,VALID,1009.07,VALID,0,VALID,90.8609,VALID,0.105969,VALID,23.4974,VALID,36,VALID,0.149219,
2009-01-25, 02:15:04,VALID,1009.07,VALID,0,VALID,90.8837,VALID,0,VALID,23.4974,VALID,57,VALID,0.310547,
2009-01-25, 02:16:04,VALID,1009.07,VALID,0,VALID,90.8609,VALID,0.105969,VALID,23.4974,VALID,19,VALID,0.592969,
2009-01-25, 02:17:04,VALID,1009.02,VALID,0,VALID,90.8837,VALID,0.105969,VALID,23.4974,VALID,28,VALID,0.00585938,
2009-01-25, 02:18:04,VALID,1009.02,VALID,0,VALID,90.8914,VALID,0.105969,VALID,23.4779,VALID,28,VALID,0.233203,
2009-01-25, 02:19:04,VALID,1009,VALID,0,VALID,90.8837,VALID,0,VALID,23.4779,VALID,67,VALID,0.251953,
2009-01-25, 02:20:04,VALID,1009.01,VALID,0,VALID,90.8914,VALID,0.105969,VALID,23.4584,VALID,84,VALID,0.582031,
2009-01-25, 02:21:04,VALID,1008.96,VALID,0,VALID,90.9066,VALID,0.105969,VALID,23.4779,VALID,82,VALID,0.336328,
2009-01-25, 02:22:04,VALID,1008.96,VALID,0,VALID,90.9219,VALID,0.105969,VALID,23.4584,VALID,59,VALID,0.421484,
2009-01-25, 02:23:04,VALID,1008.93,VALID,0,VALID,90.9295,VALID,0,VALID,23.4779,VALID,61,VALID,0.370703,
2009-01-25, 02:24:04,VALID,1008.92,VALID,0,VALID,90.9295,VALID,0.105969,VALID,23.4566,VALID,91,VALID,0.360156,
2009-01-25, 02:25:04,VALID,1008.9,VALID,0,VALID,90.9371,VALID,0.105969,VALID,23.4779,VALID,91,VALID,0,
2009-01-25, 02:26:04,VALID,1008.88,VALID,0,VALID,90.9447,VALID,0,VALID,23.4779,VALID,89,VALID,0.601953,
2009-01-25, 02:27:04,VALID,1008.87,VALID,0,VALID,90.9676,VALID,0,VALID,23.4797,VALID,76,VALID,0.785937,
2009-01-25, 02:28:04,VALID,1008.88,VALID,0,VALID,90.9371,VALID,0,VALID,23.4602,VALID,83,VALID,0.496094,
2009-01-25, 02:29:04,VALID,1008.88,VALID,0,VALID,90.9524,VALID,0,VALID,23.4797,VALID,79,VALID,0.412891,
2009-01-25, 02:30:04,VALID,1008.88,VALID,0,VALID,90.9524,VALID,0,VALID,23.4584,VALID,81,VALID,0.544922,
2009-01-25, 02:31:04,VALID,1008.84,VALID,0,VALID,90.9752,VALID,0,VALID,23.4407,VALID,88,VALID,0.845703,
2009-01-25, 02:32:04,VALID,1008.82,VALID,0,VALID,90.9752,VALID,0,VALID,23.4797,VALID,89,VALID,0.497266,
2009-01-25, 02:33:04,VALID,1008.82,VALID,0,VALID,90.96,VALID,0,VALID,23.4602,VALID,62,VALID,0.471484,
2009-01-25, 02:34:04,VALID,1008.8,VALID,0,VALID,90.9905,VALID,0,VALID,23.4797,VALID,79,VALID,0.421484,
2009-01-25, 02:35:04,VALID,1008.74,VALID,0,VALID,90.9981,VALID,0,VALID,23.4407,VALID,78,VALID,0.474609,
2009-01-25, 02:36:04,VALID,1008.72,VALID,0,VALID,91.0057,VALID,0,VALID,23.4407,VALID,78,VALID,0.00585938,
2009-01-25, 02:37:04,VALID,1008.69,VALID,0,VALID,91.0057,VALID,0,VALID,23.4389,VALID,78,VALID,0.000390625,
2009-01-25, 02:38:04,VALID,1008.7,VALID,0,VALID,91.0134,VALID,0,VALID,23.4602,VALID,35,VALID,0.342187,
2009-01-25, 02:39:04,VALID,1008.67,VALID,0.5,VALID,91.0286,VALID,0,VALID,23.4407,VALID,36,VALID,0.252734,
2009-01-25, 02:40:04,VALID,1008.66,VALID,0,VALID,91.0286,VALID,0,VALID,23.4584,VALID,36,VALID,0,
2009-01-25, 02:41:04,VALID,1008.7,VALID,0,VALID,91.021,VALID,0,VALID,23.4584,VALID,36,VALID,0,
2009-01-25, 02:42:04,VALID,1008.69,VALID,0,VALID,91.0134,VALID,0,VALID,23.4389,VALID,50,VALID,0.566797,
2009-01-25, 02:43:04,VALID,1008.69,VALID,0,VALID,91.021,VALID,0,VALID,23.4407,VALID,62,VALID,0.194531,
2009-01-25, 02:44:04,VALID,1008.7,VALID,0,VALID,91.0134,VALID,0,VALID,23.4407,VALID,62,VALID,0.129688,
2009-01-25, 02:45:04,VALID,1008.7,VALID,0,VALID,91.0286,VALID,0,VALID,23.4194,VALID,62,VALID,0.184375,
2009-01-25, 02:46:04,VALID,1008.7,VALID,0,VALID,91.0362,VALID,0,VALID,23.4389,VALID,62,VALID,0.00117188,
2009-01-25, 02:47:04,VALID,1008.74,VALID,0,VALID,91.0439,VALID,0,VALID,23.4602,VALID,62,VALID,0.0273438,
2009-01-25, 02:48:04,VALID,1008.73,VALID,0,VALID,91.0515,VALID,0,VALID,23.4389,VALID,62,VALID,0,
2009-01-25, 02:49:04,VALID,1008.73,VALID,0,VALID,91.0515,VALID,0,VALID,23.4797,VALID,62,VALID,0,
2009-01-25, 02:50:04,VALID,1008.75,VALID,0,VALID,91.0439,VALID,0,VALID,23.4797,VALID,62,VALID,0,
2009-01-25, 02:51:04,VALID,1008.74,VALID,0,VALID,91.0667,VALID,0,VALID,23.4584,VALID,62,VALID,0.30625,
2009-01-25, 02:52:04,VALID,1008.76,VALID,0,VALID,91.0515,VALID,0,VALID,23.4389,VALID,62,VALID,0.311328,
2009-01-25, 02:53:04,VALID,1008.75,VALID,0,VALID,91.0515,VALID,0,VALID,23.4992,VALID,62,VALID,0.250781,
2009-01-25, 02:54:04,VALID,1008.75,VALID,0,VALID,91.0591,VALID,0,VALID,23.4797,VALID,62,VALID,0.0929687,
2009-01-25, 02:55:04,VALID,1008.75,VALID,0,VALID,91.0744,VALID,0,VALID,23.4779,VALID,62,VALID,0,
2009-01-25, 02:56:04,VALID,1008.74,VALID,0,VALID,91.0667,VALID,0,VALID,23.4797,VALID,62,VALID,0,
2009-01-25, 02:57:04,VALID,1008.74,VALID,0,VALID,91.0591,VALID,0,VALID,23.4779,VALID,62,VALID,0,
2009-01-25, 02:58:04,VALID,1008.76,VALID,0,VALID,91.0744,VALID,0,VALID,23.4992,VALID,62,VALID,0,
2009-01-25, 02:59:04,VALID,1008.72,VALID,0,VALID,91.0744,VALID,0,VALID,23.4992,VALID,62,VALID,0,
2009-01-25, 03:00:04,VALID,1008.75,VALID,0,VALID,91.0591,VALID,0,VALID,23.4797,VALID,62,VALID,0,
2009-01-25, 03:01:04,VALID,1008.75,VALID,0,VALID,91.0591,VALID,0,VALID,23.4797,VALID,62,VALID,0,
2009-01-25, 03:02:04,VALID,1008.8,VALID,0,VALID,91.0896,VALID,0,VALID,23.4797,VALID,62,VALID,0,
2009-01-25, 03:03:04,VALID,1008.76,VALID,0,VALID,91.082,VALID,0,VALID,23.4797,VALID,62,VALID,0,
2009-01-25, 03:04:04,VALID,1008.76,VALID,0,VALID,91.0896,VALID,0,VALID,23.4797,VALID,131,VALID,0.377344,
2009-01-25, 03:05:04,VALID,1008.77,VALID,0,VALID,91.0896,VALID,0,VALID,23.4389,VALID,137,VALID,0.469922,
2009-01-25, 03:06:04,VALID,1008.78,VALID,0,VALID,91.0896,VALID,0,VALID,23.4389,VALID,137,VALID,0.518359,
2009-01-25, 03:07:04,VALID,1008.75,VALID,0,VALID,91.0896,VALID,0,VALID,23.4407,VALID,137,VALID,0.414844,
2009-01-25, 03:08:04,VALID,1008.73,VALID,0,VALID,91.0973,VALID,0,VALID,23.4407,VALID,134,VALID,0.227734,
2009-01-25, 03:09:04,VALID,1008.75,VALID,0,VALID,91.0973,VALID,0,VALID,23.4407,VALID,124,VALID,0.463281,
2009-01-25, 03:10:04,VALID,1008.75,VALID,0,VALID,91.0973,VALID,0,VALID,23.4407,VALID,122,VALID,0.408203,
2009-01-25, 03:11:04,VALID,1008.8,VALID,0,VALID,91.1049,VALID,0,VALID,23.4212,VALID,122,VALID,0.642969,
2009-01-25, 03:12:04,VALID,1008.81,VALID,0,VALID,91.0973,VALID,0,VALID,23.4407,VALID,122,VALID,0.549609,
2009-01-25, 03:13:04,VALID,1008.82,VALID,0,VALID,91.1049,VALID,0,VALID,23.4407,VALID,123,VALID,0.763281,
2009-01-25, 03:14:04,VALID,1008.82,VALID,0,VALID,91.0973,VALID,0,VALID,23.4212,VALID,134,VALID,0.938672,
2009-01-25, 03:15:04,VALID,1008.86,VALID,0,VALID,91.1201,VALID,0,VALID,23.4,VALID,139,VALID,1.05625,
2009-01-25, 03:16:04,VALID,1008.84,VALID,0,VALID,91.1125,VALID,0,VALID,23.4017,VALID,155,VALID,1.05898,
2009-01-25, 03:17:04,VALID,1008.84,VALID,0,VALID,91.1201,VALID,0,VALID,23.4017,VALID,143,VALID,1.02031,
2009-01-25, 03:18:04,VALID,1008.82,VALID,0,VALID,91.1125,VALID,0,VALID,23.3823,VALID,147,VALID,0.961328,
2009-01-25, 03:19:04,VALID,1008.83,VALID,0,VALID,91.1201,VALID,0,VALID,23.361,VALID,153,VALID,0.653125,
2009-01-25, 03:20:04,VALID,1008.8,VALID,0,VALID,91.1278,VALID,0,VALID,23.3823,VALID,126,VALID,0.431641,
2009-01-25, 03:21:04,VALID,1008.81,VALID,0,VALID,91.1278,VALID,0,VALID,23.4017,VALID,126,VALID,0.475781,
2009-01-25, 03:22:04,VALID,1008.79,VALID,0,VALID,91.143,VALID,0,VALID,23.3823,VALID,146,VALID,0.812109,
2009-01-25, 03:23:04,VALID,1008.81,VALID,0,VALID,91.1583,VALID,0,VALID,23.3805,VALID,150,VALID,0.877734,
2009-01-25, 03:24:04,VALID,1008.84,VALID,0,VALID,91.143,VALID,0,VALID,23.3823,VALID,155,VALID,1.11953,
2009-01-25, 03:25:04,VALID,1008.83,VALID,0,VALID,91.1506,VALID,0,VALID,23.4017,VALID,140,VALID,0.729688,
2009-01-25, 03:26:04,VALID,1008.83,VALID,0,VALID,91.1659,VALID,0,VALID,23.3823,VALID,138,VALID,0.810938,
2009-01-25, 03:27:04,VALID,1008.83,VALID,0,VALID,91.1659,VALID,0,VALID,23.4212,VALID,149,VALID,0.88125,
2009-01-25, 03:28:04,VALID,1008.82,VALID,0,VALID,91.1811,VALID,0,VALID,23.3823,VALID,161,VALID,0.884375,
2009-01-25, 03:29:04,VALID,1008.82,VALID,0,VALID,91.1735,VALID,0,VALID,23.3823,VALID,141,VALID,0.849609,
2009-01-25, 03:30:04,VALID,1008.82,VALID,0,VALID,91.1659,VALID,0,VALID,23.3628,VALID,157,VALID,0.385938,
2009-01-25, 03:31:04,VALID,1008.81,VALID,0,VALID,91.1888,VALID,0,VALID,23.3823,VALID,157,VALID,0.511719,
2009-01-25, 03:32:04,VALID,1008.86,VALID,0,VALID,91.1811,VALID,0,VALID,23.3628,VALID,166,VALID,0.483594,
2009-01-25, 03:33:04,VALID,1008.82,VALID,0,VALID,91.1964,VALID,0,VALID,23.3433,VALID,154,VALID,0.476953,
2009-01-25, 03:34:04,VALID,1008.85,VALID,0,VALID,91.1888,VALID,0,VALID,23.3415,VALID,122,VALID,0.388672,
2009-01-25, 03:35:04,VALID,1008.84,VALID,0,VALID,91.1811,VALID,0,VALID,23.3628,VALID,125,VALID,0.565234,
2009-01-25, 03:36:04,VALID,1008.86,VALID,0,VALID,91.1964,VALID,0,VALID,23.3628,VALID,121,VALID,0.223438,
2009-01-25, 03:37:04,VALID,1008.88,VALID,0,VALID,91.1964,VALID,0,VALID,23.3628,VALID,124,VALID,0.401563,
2009-01-25, 03:38:04,VALID,1008.9,VALID,0,VALID,91.2193,VALID,0,VALID,23.3628,VALID,127,VALID,0.445703,
2009-01-25, 03:39:04,VALID,1008.94,VALID,0,VALID,91.1888,VALID,0,VALID,23.361,VALID,141,VALID,0.466797,
2009-01-25, 03:40:04,VALID,1008.96,VALID,0,VALID,91.1964,VALID,0,VALID,23.3823,VALID,143,VALID,0,
2009-01-25, 03:41:04,VALID,1008.97,VALID,0,VALID,91.2269,VALID,0,VALID,23.3823,VALID,145,VALID,1.02148,
2009-01-25, 03:42:04,VALID,1008.99,VALID,0,VALID,91.2116,VALID,0,VALID,23.361,VALID,148,VALID,0.667969,
2009-01-25, 03:43:04,VALID,1009.03,VALID,0,VALID,91.2116,VALID,0,VALID,23.4017,VALID,146,VALID,0.832031,
2009-01-25, 03:44:04,VALID,1009.02,VALID,0,VALID,91.2116,VALID,0,VALID,23.3805,VALID,143,VALID,1.01797,
2009-01-25, 03:45:04,VALID,1009.02,VALID,0,VALID,91.2193,VALID,0,VALID,23.4212,VALID,145,VALID,1.03516,
2009-01-25, 03:46:04,VALID,1009.03,VALID,0,VALID,91.2116,VALID,0,VALID,23.4,VALID,142,VALID,0.935938,
2009-01-25, 03:47:04,VALID,1009.02,VALID,0,VALID,91.2116,VALID,0,VALID,23.4407,VALID,150,VALID,0.817578,
2009-01-25, 03:48:04,VALID,1009.03,VALID,0,VALID,91.2269,VALID,0,VALID,23.4194,VALID,148,VALID,0.785937,
2009-01-25, 03:49:04,VALID,1009.01,VALID,0,VALID,91.2421,VALID,0,VALID,23.4797,VALID,146,VALID,0.896094,
2009-01-25, 03:50:04,VALID,1008.99,VALID,0,VALID,91.2345,VALID,0,VALID,23.4602,VALID,158,VALID,0.906641,